Simultaneous Nadir Overpasses (SNOs) Predictions

Prediction of SNOs between NOAA-15 and METOP-C Satellite Orbit:

Table of predicted SNOs for the next 14.0 days since TLE Epoch: 3/20/2021
Index Date (NOAA-15) Time (NOAA-15) Lat,Lon (NOAA-15) SZA (NOAA-15 ) Date (METOP-C) Time (METOP-C) Lat,Lon (METOP-C) SZA (METOP-C ) Distance(km) Time Diff (sec)
1 03/29/2021 18:45:38 -81.00, 115.42 101.02 03/29/2021 18:44:23 -80.99, 115.53 101.04 2.17 75
2 03/29/2021 19:36:13 81.00, -77.28 78.97 03/29/2021 19:35:04 80.99, -77.19 78.94 2.29 69
3 03/29/2021 20:26:40 -80.99, 90.27 101.04 03/29/2021 20:25:44 -81.00, 90.40 101.04 2.23 56
4 03/29/2021 21:17:15 81.00,-102.43 78.95 03/29/2021 21:16:25 81.00,-102.32 78.94 1.92 50
5 03/29/2021 22:07:43 -81.01, 64.76 101.08 03/29/2021 22:07:06 -80.99, 64.90 101.09 3.00 37
6 03/29/2021 22:58:17 80.99,-127.58 78.93 03/29/2021 22:57:46 81.01,-127.45 78.94 2.72 31
7 03/29/2021 23:48:45 -81.00, 39.61 101.10 03/29/2021 23:48:27 -81.00, 39.77 101.09 2.88 18
8 03/30/2021 00:39:20 81.00,-153.10 78.89 03/30/2021 00:39:08 81.00,-152.95 78.89 2.81 12
9 03/30/2021 01:29:47 -81.00, 14.46 101.12 03/30/2021 01:29:49 -80.99, 14.28 101.14 3.14 2
10 03/30/2021 02:20:22 81.00,-178.26 78.87 03/30/2021 02:20:29 81.01,-178.07 78.90 3.28 7
11 03/30/2021 03:10:49 -80.99, -10.69 101.14 03/30/2021 03:11:10 -81.00, -10.85 101.14 3.08 21
12 03/30/2021 04:01:24 80.99, 156.59 78.85 03/30/2021 04:01:51 81.00, 156.43 78.85 2.92 27
13 03/30/2021 04:51:52 -81.00, -36.21 101.18 03/30/2021 04:52:32 -81.00, -36.35 101.18 2.54 40
14 03/30/2021 05:42:27 81.01, 131.07 78.81 03/30/2021 05:43:13 80.99, 130.94 78.80 2.75 46
15 03/30/2021 06:32:54 -81.00, -61.36 101.20 03/30/2021 06:33:53 -81.01, -61.48 101.18 2.25 59
16 03/30/2021 07:23:29 81.00, 105.92 78.79 03/30/2021 07:24:34 81.00, 105.81 78.80 2.01 65



Historial Predications of SNOs between NOAA-15 and METOP-C
